Flag for United Arab Emirates

Past Weather in Dubai, Dubai, United Arab Emirates — Yesterday and Last 2 Weeks

Now
99 °F

Passing clouds.


Feels Like: 108 °F
Forecast: 101 / 92 °F
Wind: 8 mph from Northeast

Location: Dubai International Airport

Current Time: Jul 9, 2020 at 11:26:04 pm

Latest Report: Jul 9, 2020 at 11:00 pm


Visibility: N/A

Pressure: 29.45 "Hg

Humidity: 42%

Dew Point: 72 °F

Location of DubaiLocation

Past Weather in Dubai — Graph

°F

Dubai Temperature Yesterday

Maximum temperature yesterday: 109 °F (at 12:00 pm)
Minimum temperature yesterday: 93 °F (at 6:00 am)
Average temperature yesterday: 101 °F

High & Low Weather Summary for the Past Weeks

 TemperatureHumidityPressure
High109 °F (Jul 2, 3:00 pm)89% (Jul 5, 7:00 am)29.53 "Hg (Jul 5, 7:00 am)
Low88 °F (Jul 5, 7:00 am)14% (Jul 7, 1:00 pm)29.27 "Hg (Jul 5, 6:00 pm)
Average98 °F48%29.43 "Hg
* Reported Jun 24 10:00 pm — Jul 9 10:00 pm, Dubai. Weather by CustomWeather, © 2020

Note: Actual official high and low records may vary slightly from our data, if they occured in-between our weather recording intervals... More about our weather records

Dubai Weather History for the Previous 24 Hours

Scroll right to see more
 ConditionsComfort  
Time TempWeatherWind HumidityBarometerVisibility
10:00 pm
Thu, Jul 9
99 °FPassing clouds.6 mph44%29.42 "HgN/A
9:00 pm99 °FPassing clouds.5 mph50%29.42 "HgN/A
8:00 pm95 °FClear.10 mph67%29.42 "Hg5 mi
7:00 pm99 °FClear.9 mph53%29.39 "Hg4 mi
6:00 pm100 °FClear.14 mph50%29.39 "Hg4 mi
5:00 pm102 °FClear.17 mph40%29.39 "Hg4 mi
4:00 pm106 °FClear.17 mph28%29.39 "Hg4 mi
3:00 pm106 °FDuststorm.16 mph32%29.42 "Hg3 mi
2:00 pm108 °FDuststorm.10 mph30%29.42 "Hg3 mi
1:00 pm109 °FClear.6 mph30%29.45 "Hg4 mi
12:00 pm108 °FClear.7 mph25%29.45 "Hg4 mi
11:00 am106 °FClear.8 mph26%29.47 "Hg4 mi
10:00 am102 °FDuststorm.8 mph29%29.47 "Hg3 mi
9:00 am100 °FDuststorm.9 mph33%29.47 "Hg3 mi
8:00 am99 °FDuststorm.8 mph35%29.47 "Hg3 mi
7:00 am97 °FClear.6 mph37%29.47 "Hg4 mi
6:00 am97 °FClear.7 mph37%29.45 "Hg4 mi
5:00 am93 °FClear.5 mph41%29.45 "Hg10 mi
4:00 am95 °FClear.7 mph36%29.45 "Hg10 mi
3:00 am95 °FClear.7 mph36%29.42 "Hg10 mi
2:00 am97 °FPassing clouds.5 mph34%29.42 "HgN/A
1:00 am99 °FPassing clouds.6 mph33%29.45 "HgN/A
12:00 am97 °FClear.7 mph42%29.45 "Hg10 mi
11:00 pm
Wed, Jul 8
99 °FPassing clouds.13 mph35%29.45 "HgN/A
Weather by CustomWeather, © 2020

See weather overview